Location: Poughquag
(41.6090°N, 73.6820°W)
Time: 09:36:25
(UTC-05:00)

Vanguard 1 - Pass Details

Date: 08 December 2023
Orbit: 653 x 3826 km, 34.3° (Epoch: 25 February)

Event Time Altitude Azimuth Distance (km) Brightness Sun altitude
Rises 21:54:03 0° 280° (W) 6,883 14.8 -59.9°
Reaches altitude 10° 21:58:18 10° 276° (W) 6,179 14.4 -60.5°
Enters shadow 22:12:16 45° 243° (WSW) 4,560 13.2 -62.7°
Maximum altitude 22:18:27 52° 208° (SSW) 4,382 - -63.6°
Drops below altitude 10° 22:39:19 10° 139° (SE) 6,332 - -66.5°
Sets 22:43:47 0° 135° (SE) 7,051 - -67.0°
